User: anonymous   Login
Location: Chenango Forks
(42.2242°N, 75.8278°W)
Time: 15:55:55
(UTC-04:00)
Language:

Coronas F rocket - Orbit

View from above orbital plane
View from above orbital plane
View from above satellite
View from above satellite

Ground track
Ground track

The orbit data is extracted from the following two-line orbital elements,

1 26874U 01032B   16208.21515260  .00018436  00000-0  86776-4 0  9992
2 26874  82.4579 239.0625 0007620  66.9546 293.2526 15.82895416841812
Epoch (UTC): 26 July 2016 05:09:49
Eccentricity: 0.0007620
inclination: 82.4579°
perigee height: 317 km
apogee height: 327 km
right ascension of ascending node: 239.0625°
argument of perigee: 66.9546°
revolutions per day: 15.82895416
mean anomaly at epoch: 293.2526°
orbit number at epoch: 84181

The dashed part of the orbit path shows where the satellite is in the earth's shadow,  

DLR